| time (UTC) | temp F | wind direction | speed MPH | gust MPH | rain 1hr in | rain 24hr in | rain mn in | humidity % | barometer mb |
| 20260906090055 | 67 | 169 | 1.0 | 4.0 | 0.00 | 0.51 | 0.00 | 94 | 1014.2 |
| 20260906084554 | 68 | 168 | 0.0 | 3.0 | 0.00 | 0.51 | 0.00 | 95 | 1014.2 |
| 20260906083047 | 68 | 136 | 0.0 | 2.0 | 0.00 | 0.51 | 0.00 | 95 | 1014.1 |
| 20260906081546 | 69 | 114 | 0.0 | 2.0 | 0.00 | 0.51 | 0.00 | 95 | 1014.1 |
| 20260906080053 | 69 | 144 | 0.0 | 3.0 | 0.00 | 0.51 | 0.00 | 96 | 1013.9 |
| 20260906074543 | 69 | 150 | 0.0 | 3.0 | 0.00 | 0.51 | 0.00 | 96 | 1013.9 |
| 20260906073040 | 70 | 142 | 0.0 | 4.0 | 0.00 | 0.51 | 0.00 | 96 | 1013.9 |
| 20260906071540 | 70 | 138 | 0.0 | 3.0 | 0.00 | 0.51 | 0.00 | 97 | 1014.1 |
| 20260906070040 | 70 | 132 | 0.0 | 2.0 | 0.00 | 0.51 | 0.00 | 97 | 1014.1 |
| 20260906064539 | 70 | 136 | 0.0 | 2.0 | 0.00 | 0.51 | 0.00 | 97 | 1014.0 |
| 20260906063038 | 70 | 117 | 0.0 | 2.0 | 0.00 | 0.51 | 0.00 | 97 | 1014.0 |
| 20260906061539 | 70 | 129 | 0.0 | 2.0 | 0.00 | 0.51 | 0.00 | 97 | 1014.0 |
| 20260906060040 | 70 | 140 | 0.0 | 0.0 | 0.00 | 0.51 | 0.00 | 97 | 1014.1 |
| 20260906054536 | 70 | 140 | 0.0 | 0.0 | 0.00 | 0.51 | 0.00 | 97 | 1014.1 |
| 20260906053035 | 70 | 140 | 0.0 | 0.0 | 0.00 | 0.51 | 0.00 | 97 | 1014.1 |
| 20260906051534 | 70 | 140 | 0.0 | 0.0 | 0.00 | 0.51 | 0.00 | 97 | 1014.1 |
| 20260906050032 | 71 | 140 | 0.0 | 2.0 | 0.00 | 0.51 | 0.00 | 97 | 1013.9 |
| 20260906044533 | 70 | 127 | 0.0 | 1.0 | 0.00 | 0.51 | 0.00 | 97 | 1013.6 |
| 20260906043027 | 71 | 136 | 0.0 | 2.0 | 0.01 | 0.51 | 0.00 | 97 | 1013.4 |
| 20260906041535 | 70 | 111 | 0.0 | 0.0 | 0.01 | 0.51 | 0.00 | 97 | 1013.3 |
| 20260906040022 | 70 | 111 | 0.0 | 0.0 | 0.01 | 0.51 | 0.00 | 97 | 1013.2 |
| 20260906034526 | 71 | 111 | 0.0 | 0.0 | 0.00 | 0.50 | 0.50 | 96 | 1013.1 |
| 20260906033021 | 71 | 111 | 0.0 | 0.0 | 0.00 | 0.50 | 0.50 | 97 | 1013.1 |
| 20260906031520 | 71 | 111 | 0.0 | 0.0 | 0.00 | 0.50 | 0.50 | 96 | 1013.2 |
| 20260906030020 | 72 | 117 | 0.0 | 2.0 | 0.00 | 0.50 | 0.50 | 97 | 1013.1 |
| 20260906024519 | 71 | 132 | 0.0 | 2.0 | 0.00 | 0.50 | 0.50 | 97 | 1013.3 |
| 20260906023019 | 71 | 37 | 0.0 | 0.0 | 0.00 | 0.50 | 0.50 | 96 | 1013.2 |
| 20260906021519 | 71 | 37 | 0.0 | 2.0 | 0.13 | 0.50 | 0.50 | 96 | 1013.3 |
| 20260906020018 | 72 | 37 | 0.0 | 0.0 | 0.13 | 0.50 | 0.50 | 96 | 1013.4 |
| 20260906014522 | 71 | 281 | 0.0 | 0.0 | 0.13 | 0.50 | 0.50 | 96 | 1013.6 |
| 20260906013018 | 71 | 281 | 0.0 | 2.0 | 0.13 | 0.50 | 0.50 | 96 | 1013.4 |
| 20260906011516 | 71 | 140 | 0.0 | 2.0 | 0.00 | 0.37 | 0.37 | 96 | 1013.6 |
| 20260906010015 | 70 | 155 | 0.0 | 2.0 | 0.00 | 0.37 | 0.37 | 95 | 1012.5 |
| 20260906004515 | 70 | 160 | 0.0 | 2.0 | 0.02 | 0.37 | 0.37 | 95 | 1012.5 |
| 20260906003015 | 70 | 80 | 0.0 | 2.0 | 0.08 | 0.37 | 0.37 | 95 | 1012.1 |
| 20260906001514 | 70 | 97 | 0.0 | 1.0 | 0.08 | 0.37 | 0.37 | 94 | 1012.3 |
| 20260906000013 | 71 | 166 | 1.0 | 3.0 | 0.08 | 0.37 | 0.37 | 93 | 1012.4 |
| 20260905234513 | 72 | 248 | 1.0 | 4.0 | 0.05 | 0.34 | 0.34 | 90 | 1012.5 |
| 20260905233011 | 79 | 265 | 1.0 | 8.0 | 0.00 | 0.28 | 0.28 | 87 | 1012.4 |
| 20260905231510 | 79 | 110 | 0.0 | 0.0 | 0.00 | 0.28 | 0.28 | 88 | 1011.9 |
| 20260905230009 | 80 | 143 | 0.0 | 0.0 | 0.00 | 0.28 | 0.28 | 82 | 1011.4 |
| 20260905224517 | 80 | 135 | 0.0 | 0.0 | 0.00 | 0.28 | 0.28 | 87 | 1011.8 |
| 20260905223008 | 80 | 135 | 0.0 | 0.0 | 0.00 | 0.28 | 0.28 | 85 | 1011.7 |
| 20260905221519 | 81 | 135 | 0.0 | 0.0 | 0.00 | 0.28 | 0.28 | 84 | 1011.4 |
| 20260905220007 | 84 | 135 | 0.0 | 0.0 | 0.00 | 0.28 | 0.28 | 81 | 1011.3 |
| 20260905214509 | 84 | 135 | 0.0 | 2.0 | 0.00 | 0.28 | 0.28 | 83 | 1011.2 |
| 20260905213006 | 84 | 136 | 0.0 | 2.0 | 0.00 | 0.28 | 0.28 | 79 | 1011.2 |
| 20260905211503 | 84 | 241 | 0.0 | 2.0 | 0.00 | 0.28 | 0.28 | 79 | 1011.5 |
| 20260905210002 | 85 | 146 | 0.0 | 2.0 | 0.00 | 0.28 | 0.28 | 75 | 1011.6 |
| 20260905204502 | 84 | 98 | 0.0 | 2.0 | 0.00 | 0.28 | 0.28 | 80 | 1011.8 |
| 20260905203105 | 82 | 144 | 0.0 | 2.0 | 0.00 | 0.28 | 0.28 | 86 | 1011.9 |
| 20260905201608 | 81 | 144 | 0.0 | 2.0 | 0.28 | 0.28 | 0.28 | 87 | 1012.0 |
| 20260905200058 | 79 | 144 | 0.0 | 2.0 | 0.28 | 0.28 | 0.28 | 92 | 1012.3 |
| 20260905194553 | 76 | 137 | 0.0 | 2.0 | 0.28 | 0.28 | 0.28 | 93 | 1012.5 |
| 20260905193050 | 75 | 126 | 1.0 | 2.0 | 0.28 | 0.28 | 0.28 | 90 | 1013.0 |
| 20260905191552 | 86 | 86 | 1.0 | 5.0 | 0.00 | 0.00 | 0.00 | 65 | 1013.1 |
| 20260905190150 | 86 | 306 | 1.0 | 9.0 | 0.00 | 0.00 | 0.00 | 67 | 1012.9 |
| 20260905143011 | 77 | 289 | 0.0 | 1.0 | 0.00 | 0.00 | 0.00 | 79 | 1013.7 |
| 20260905141504 | 76 | 281 | 0.0 | 2.0 | 0.00 | 0.00 | 0.00 | 82 | 1013.9 |
| 20260905140059 | 73 | 281 | 0.0 | 2.0 | 0.00 | 0.00 | 0.00 | 88 | 1014.5 |
| 20260905134555 | 71 | 222 | 0.0 | 2.0 | 0.00 | 0.00 | 0.00 | 91 | 1014.8 |
| 20260905133051 | 70 | 222 | 0.0 | 2.0 | 0.00 | 0.00 | 0.00 | 92 | 1015.2 |
| 20260905100025 | 71 | 162 | 7.0 | 13.0 | 0.00 | 0.00 | 0.00 | 93 | 1015.3 |
| 20260905094522 | 70 | 132 | 0.0 | 0.0 | 0.00 | 0.00 | 0.00 | 96 | 1013.6 |
| 20260905093021 | 70 | 132 | 0.0 | 0.0 | 0.00 | 0.00 | 0.00 | 96 | 1013.4 |
| 20260905091520 | 70 | 132 | 0.0 | 0.0 | 0.00 | 0.00 | 0.00 | 96 | 1013.3 |